{"data":{"norad_id":54678,"epoch":"2026-09-20T04:00:49.059072Z","epoch_age_seconds":50769,"freshness":"FRESH","line1":"1 54678U 22166AN  26263.16723448  .00001052  00000+0  25147-2 0  9999","line2":"2 54678  87.9282 225.0805 0001935  79.9672 280.1680 13.21822923184076","mean_motion":13.21822923,"eccentricity":0.0001935,"inclination_deg":87.9282,"raan_deg":225.0805,"arg_perigee_deg":79.9672,"mean_anomaly_deg":280.168,"bstar":0.0025147,"rev_number":18407,"period_min":108.94046206521,"perigee_km":1176.3030272734,"apogee_km":1179.2271613839,"semimajor_km":7555.9020943287,"source":"CELESTRAK","updated_at":"2026-09-20T09:00:44.748817Z"}}